www.pogodaiklimat.ru

Погода и климат >> Архив погоды >> Россия >> Якутия >> Среднеколымск


АРХИВ ПОГОДЫ в Среднеколымске

Время (UTC), дата Ветер
(напр.,м/с)
 
Видим.   Явления Облачность Т
(С)
Тd
(С)
f
(%)
Тe
(С)
Тes
(С)
Комфортность P
(гПа)
Po
(гПа)
Тmin
(С)
Tmax
(С)
R
(мм)
R24
(мм)
S
(см)
09 11.02 штиль 0 50 км ясно -37.4 -40.1 76 -37 -37 опасность
обморожения
1019.9 1015.3 -30.5
12 11.02 штиль 0 50 км ясно -39.3 -42.3 73 -39 -39 опасность
обморожения
1018.8 1014.2
15 11.02 Ю 1 50 км ясно -42.3 -45.0 75 -48 -48 опасность
обморожения
1018.1 1013.5
18 11.02 Ю 2 50 км 3/0
[Ci fib]
-42.9 -45.6 75 -53 -53 опасность
обморожения
1017.4 1012.7
21 11.02 Ю 2 50 км 3/0
[Ci fib]
-42.9 -45.6 75 -53 -53 опасность
обморожения
1017.3 1012.6 -44.1 32
00 12.02 Ю 1 50 км ледяные иглы {снег} 4/0
[Ci fib]
-39.8 -42.8 73 -45 -45 опасность
обморожения
1017.5 1012.9
03 12.02 ЮЗ 2 50 км {снег} 5/0
[Ci fib]
-36.9 -39.8 74 -46 -45 опасность
обморожения
1017.5 1013.0
06 12.02 Ю 2 50 км {снег} 4/0
[Ci fib]
-38.3 -40.9 76 -47 -47 опасность
обморожения
1018.3 1013.7
09 12.02 Ю 2 50 км ясно -38.8 -41.8 73 -48 -48 опасность
обморожения
1019.4 1014.8 -36.9
12 12.02 Ю 2 50 км ясно -39.2 -41.8 76 -48 -48 опасность
обморожения
1020.1 1015.5
15 12.02 Ю 1 50 км ледяные иглы {снег} 3/0
[Ci fib]
-41.1 -43.8 75 -46 -46 опасность
обморожения
1020.3 1015.7
18 12.02 Ю 1 50 км ледяные иглы {снег} 3/0
[Ci fib]
-41.6 -44.4 74 -47 -47 опасность
обморожения
1020.9 1016.3
21 12.02 Ю 1 50 км {снег} 3/0
[Ci fib]
-42.6 -45.6 72 -48 -48 опасность
обморожения
1021.7 1016.9 -43.4 0.0 32
00 13.02 штиль 0 50 км {снег} 3/0
[Ci fib]
-41.3 -43.8 77 -41 -41 опасность
обморожения
1022.6 1018.0 -43.5
03 13.02 штиль 0 50 км 3/0
[Ci fib]
-36.1 -39.0 74 -36 -36 опасность
обморожения
1023.8 1018.4
06 13.02 штиль 0 50 км 3/0
[Ci fib]
-37.1 -40.1 73 -37 -37 опасность
обморожения
1023.2 1018.6
09 13.02 штиль 0 50 км ясно -41.9 -44.4 76 -42 -42 опасность
обморожения
1023.7 1019.1 -36.1
12 13.02 штиль 0 50 км ясно -44.6 -47.0 77 -45 -45 опасность
обморожения
1024.1 1019.3
15 13.02 штиль 0 4000 м дымка ясно -45.2 -47.8 75 -45 -45 опасность
обморожения
1022.5 1017.7
18 13.02 штиль 0 50 км ясно -45.2 -47.8 75 -45 -45 опасность
обморожения
1021.5 1016.7
21 13.02 штиль 0 50 км ясно -45.8 -48.6 73 -46 -46 опасность
обморожения
1019.9 1015.1 -45.8 32
00 14.02 штиль 0 2000 м дымка ясно -43.3 -46.3 72 -43 -43 опасность
обморожения
1018.8 1014.1
03 14.02 штиль 0 4000 м дымка ясно -39.4 -42.3 74 -39 -39 опасность
обморожения
1017.6 1013.0
06 14.02 штиль 0 50 км ясно -38.9 -41.8 74 -39 -39 опасность
обморожения
1016.4 1011.8
09 14.02 штиль 0 50 км ясно -41.5 -44.4 73 -42 -42 опасность
обморожения
1016.1 1011.5 -38.9
12 14.02 Ю 1 4000 м дымка ясно -43.1 -45.6 76 -49 -49 опасность
обморожения
1015.1 1010.4
15 14.02 Ю 1 4000 м дымка ясно -43.8 -46.3 76 -49 -49 опасность
обморожения
1013.8 1009.1
18 14.02 Ю 1 50 км ясно -43.6 -46.3 74 -49 -49 опасность
обморожения
1012.7 1008.0
21 14.02 штиль 0 50 км 3/0
[Ci fib]
-44.9 -47.8 72 -45 -45 опасность
обморожения
1011.8 1007.1 -45.4 32
00 15.02 Ю 1 50 км 3/0
[Ci fib]
-43.3 -46.3 72 -49 -48 опасность
обморожения
1011.0 1006.3 -46.3
03 15.02 Ю 1 50 км 4/0
[Ci fib]
-39.5 -42.3 74 -45 -44 опасность
обморожения
1009.1 1004.5
06 15.02 штиль 0 50 км 4/0
[Ci fib]
-40.4 -43.3 73 -40 -40 опасность
обморожения
1008.4 1003.8
09 15.02 ЮЗ 1 50 км ясно -43.2 -45.6 77 -49 -49 опасность
обморожения
1007.6 1003.0 -39.5
12 15.02 штиль 0 50 км ясно -43.5 -46.3 74 -44 -44 опасность
обморожения
1006.9 1002.2
15 15.02 штиль 0 50 км ясно -43.4 -46.3 73 -43 -43 опасность
обморожения
1006.1 1001.4
18 15.02 штиль 0 50 км 6/0
[Ci fib]
-40.3 -43.3 73 -40 -40 опасность
обморожения
1005.1 1000.5
21 15.02 штиль 0 20 км слаб. снег 10/0
[Ac trans Cs]
-40.2 -42.8 76 -40 -40 опасность
обморожения
1004.9 1000.3 -43.5 0.0 32
00 16.02 штиль 0 20 км слаб. снег 10/0
[Ac trans Cs]
-38.1 -40.9 75 -38 -38 опасность
обморожения
1003.9 999.3
03 16.02 штиль 0 20 км слаб. снег 10/4 1000 м
[Sc Ac trans Cs]
-35.5 -38.4 75 -36 -35 опасность
обморожения
1002.9 998.4
06 16.02 штиль 0 20 км слаб. снег 10/8 1000 м
[Sc Ac trans Cs]
-34.5 -37.4 75 -35 -35 опасность
обморожения
1002.5 998.0
09 16.02 штиль 0 20 км слаб. снег 10/10 600 м
[Sc]
-33.5 -36.6 73 -34 -34 опасность
обморожения
1002.6 998.1 -33.1 0.4
12 16.02 З 1 20 км слаб. снег 10/8 600 м
[Sc Ac trans Cs]
-32.8 -35.8 74 -37 -37 опасность
обморожения
1002.4 997.9
15 16.02 ЮЗ 2 20 км слаб. снег 10/8 600 м
[Sc Ac trans Cs]
-32.2 -35.3 74 -40 -40 опасность
обморожения
1001.8 997.4
18 16.02 Ю 1 20 км слаб. снег 10/10 600 м
[Sc]
-32.4 -35.5 74 -37 -37 опасность
обморожения
1002.5 998.1
21 16.02 З 2 20 км слаб. снег 10/10 600 м
[Sc]
-32.0 -35.0 75 -40 -40 опасность
обморожения
1003.1 998.7 -33.5 0.2 32
00 17.02 ЮЗ 2 20 км слаб. снег 10/10 300 м
[Sc]
-30.6 -33.6 75 -38 -38 опасность
обморожения
1004.1 999.7
03 17.02 ЮЗ 2 50 км {снег} 10/5 600 м
[Sc Ac trans Ci fib]
-29.8 -32.8 75 -37 -37 опасность
обморожения
1004.5 1000.1
06 17.02 ЮЗ 3 20 км слаб. снег 10/8 600 м
[Sc Cs]
-29.5 -32.6 74 -39 -39 опасность
обморожения
1005.4 1001.0
09 17.02 ЮЗ 2 20 км слаб. снег 10/3 1000 м
[Sc Ac trans Cs]
-30.4 -33.4 75 -38 -38 опасность
обморожения
1006.9 1002.5 -28.9 0.0
12 17.02 ЮЗ 2 20 км слаб. снег 10/0
[Ac trans Cs]
-32.3 -35.3 74 -40 -40 опасность
обморожения
1007.8 1003.4
15 17.02 Ю 3 50 км {снег} 10/0
[Ac trans Ci fib]
-33.8 -36.8 74 -44 -44 опасность
обморожения
1008.4 1003.9
18 17.02 ЮЗ 3 50 км 10/0
[]
-35.1
21 17.02 ЮЗ 2 50 км 10/0
[Ac trans Ci fib]
-35.6 -38.4 75 -44 -44 опасность
обморожения
1009.9 1005.4 -35.6 0.0 32
00 18.02 Ю 1 50 км 10/0
[Ac trans Ci fib]
-34.8 -37.7 75 -39 -39 опасность
обморожения
1010.7 1006.2 -35.9
03 18.02 Ю 2 50 км 4/0
[Ci fib]
-32.1 -35.0 75 -40 -39 опасность
обморожения
1010.9 1006.5
06 18.02 Ю 1 50 км 6/0
[Ci fib]
-33.0 -36.0 74 -37 -37 опасность
обморожения
1012.2 1007.7

 

Местоположение метеостанции Среднеколымск (Якутия, Россия): широта 67.45 долгота 153.70 высота над уровнем моря 21 м.

В архиве по умолчанию представлена погода в Среднеколымске за последнюю неделю. Архивные данные за месяц целиком и за предыдущие месяцы, начиная с января 2011 года, Вы можете получить, выбрав интересующий диапазон дат из раскрывающегося списка и нажав кнопку "Ввод!".


*Определитесь, кто Вы:
робот инопланетянин человек

Внимание! Время в таблицах - всемирное. Для получения местного времени необходимо прибавить поправку, которая равна 11 ч.

Смотрите также архив погоды в соседних городах и на ближайших метеорологических станциях:

Погода в Андрюшкино (Якутия, Россия) (194 км)
Погода в Зырянке (Якутия, Россия) (228 км)
Погода в Колымской (Якутия, Россия) (248 км)
Погода в Коркодоне (Магаданская область, Россия) (300 км)
Погода в Константиновской (Чукотка, Россия) (320 км)
Погода в Белой Горе (Якутия, Россия) (335 км)
Погода в Анюйске (Чукотка, Россия) (341 км)
Погода в Черском (Якутия, Россия) (346 км)
Погода в Омолоне (Чукотка, Россия) (391 км)
Погода в Балыгычане (Магаданская область, Россия) (394 км)

Пояснения к столбцам:

Ветер - указаны скорость ветра в м/с - средняя за 10 мин, порывы в срок и между сроками (в фигурных скобках) и направление, откуда дует ветер: С - северный, СВ - северо-восточный, В - восточный, ЮВ - юго-восточный, Ю - южный, ЮЗ - юго-западный, З - западный, СЗ - северо-западный.
Видимость - горизонтальная дальность видимости в метрах или километрах. При видимости от 1 до 10 км при отсутствии осадков обычно наблюдается дымка, при ухудшении видимости до 1 км и менее - туман. В сухую погоду видимость может ухудшаться дымом, пылью или мглою.
Явления - указаны атмосферные явления, наблюдавшиеся в срок или в последний час перед сроком; фигурными скобками обозначены явления, наблюдавшиеся между сроками (за 1-3 часа до срока); квадратными скобками обозначены град или гололедные отложения с указанием их диаметра в мм.
Облачность - указаны через наклонную черту общая и нижняя облачность в баллах и высота нижней границы облаков в метрах; квадратными скобками обозначены формы облаков: Ci - перистые, Cs - перисто-слоистые, Cc - перисто-кучевые, Ac - высококучевые, As - высокослоистые, Sc - слоисто-кучевые, Ns - слоисто-дождевые, Cu - кучевые, Cb - кучево-дождевые. Подробнее классификацию облаков см. в Атласе облаков (PDF).
T - Температура воздуха - температура, измеренная на высоте 2 м над землей.
Td - Температура точки росы - температура, при понижении до которой содержащийся в воздухе водяной пар достигнет насыщения.
f - Относительная влажность воздуха - влажноcть воздуха, измеренная на высоте 2 м над землей.
Te - Эффективная температура - температура, которую ощущает одетый по сезону человек в тени. Характеристика душности погоды. При расчете учитывается влияние влажности воздуха и скорости ветра на теплоощущения человека.
Tes - Эффективная температура на солнце - температура, которую ощущает человек, с поправкой на солнечный нагрев. Характеристика знойности погоды. Зависит от высоты солнца над горизонтом, облачности и скорости ветра. Ночью, в пасмурную погоду, а также при ветре 12 м/с и более поправка равна нулю.
P - Атмосферное давление - приведенное к уровню моря атмосферное давление.
Po - Атмосферное давление - измеренное на уровне метеостанции атмосферное давление.
Tmin - Минимальная температура - минимум температуры воздуха на высоте 2 м над землей.
Tmax - Максимальная температура - максимум температуры воздуха на высоте 2 м над землей.
R - Количество осадков - Количество выпавших осадков за период времени, мм. При наведении курсора мыши на число - период времени, за который выпало указанное количество осадков.
R24 - Количество осадков - Количество выпавших осадков за 24 часа, мм.
S - Снежный покров - Высота снежного покрова, см. При наведении курсора мыши на число - состояние снежного покрова и степень покрытия местности в баллах.